Vertical_Velocity
-0 -1 1 1 4 2 -4 2 -11 -1 -3 5 3 3 5 -1 3 1 1 1 1 1 -0 -1 -1 -1 -1 3 6 2 1 2 1 1 1 3 4 -1 1 2 1 -2 0 2 2 1 2 1 2
0 0 0 2 5 3 3 -1 -6 -8 5 1 1 4 1 -1 -1 1 3 4 2 1 0 0 1 2 2 0 1 1 2 2 1 1 1 1 2 0 -0 1 0 -1 -2 -3 1 2 1 2 2
-1 3 -1 3 3 6 -3 -2 3 2 -15 -6 -4 -0 2 -1 -1 -1 -0 0 -0 -2 -0 1 1 2 1 -0 0 -1 1 0 0 -1 0 0 0 -0 2 1 2 -1 -1 -0 1 -1 1 0 2
-1 2 2 6 1 1 -3 -4 -2 -1 5 -3 -2 2 1 1 -1 -1 0 0 -0 1 1 1 1 -1 -1 -1 -0 0 0 1 0 -0 1 1 2 -1 1 1 2 -0 1 0 -0 0 -1 2 -0
1 1 1 3 5 -7 -2 -1 1 -15 -3 -3 3 -4 0 -1 -1 -0 -0 0 0 1 1 -0 0 1 1 0 0 0 1 1 -0 2 0 0 3 1 3 1 1 0 -1 1 0 -1 1 -2 -1
-2 2 2 -1 -5 5 -6 -6 -9 -7 7 11 1 1 1 -1 -2 -0 -0 0 0 -1 1 -1 -1 -1 -0 1 0 -1 -1 -0 0 -1 -1 1 -0 1 1 1 1 1 -0 -1 -0 0 2 -1 -1
-2 -1 1 1 -2 1 -6 -0 -6 -4 2 -1 3 1 -1 -2 -2 -2 -2 -0 0 0 -1 -1 1 -1 1 -1 -2 -2 0 -1 -2 -1 -1 -1 -0 0 1 1 3 2 0 0 0 0 1 2 -0
5 -5 4 -3 -6 1 -10 -1 -11 4 -3 -9 1 0 -4 -2 -2 -2 -1 -1 -1 1 2 0 -1 0 -1 -1 -1 -1 0 2 -1 0 -1 2 2 1 -0 1 1 2 2 1 0 -1 1 2 1
5 -3 -6 -7 -5 -5 -9 -3 3 -1 0 6 1 -4 -1 -1 1 -0 -3 -1 0 -2 3 -0 1 1 -0 -2 1 -2 -0 -0 -1 0 -1 0 0 2 0 -1 1 1 1 2 2 0 -0 1 1
4 0 -6 -3 -0 -6 -5 -0 8 4 1 2 -3 -1 -0 -1 -1 -2 0 -3 -2 2 -0 3 -2 -1 1 4 -1 -1 -2 -4 -3 -5 -2 1 4 2 -2 1 1 4 3 0 1 1 0 1 1
-2 -9 -3 0 2 -8 -7 -0 7 4 4 -3 -0 -1 0 -0 -1 -2 -1 0 -3 -3 -4 -4 1 -2 -7 -3 3 6 0 -0 4 0 -4 -8 1 4 11 -4 -1 -1 -3 -1 -1 -1 0 1 2
-0 -3 7 -4 -4 5 11 -8 -12 1 3 2 -2 -2 -1 -3 1 -3 -3 1 -2 0 1 -1 -4 -1 -1 -4 -5 -10 -3 -3 2 1 6 1 5 2 1 -1 1 3 -1 2 2 -4 8 -5 2
-6 0 5 -4 -3 4 3 -2 -1 -7 -2 -2 -1 -1 -2 -2 -5 2 -1 -0 5 -1 -2 -2 -0 1 3 -7 -5 -4 -1 0 -3 0 5 -4 -0 -1 1 -0 4 1 0 1 3 -3 6 1 0
3 -0 -0 2 -3 -2 1 1 4 -1 -2 -2 1 -0 -3 -1 -1 -0 -2 -5 -6 -5 2 -3 -5 -3 -6 3 -2 -3 -2 -2 -3 -3 -1 1 -2 0 -0 -0 -2 2 3 2 4 -2 -1 4 -2
1 1 -2 8 5 6 -2 -0 -3 1 -1 -3 3 1 -2 -1 1 3 -0 0 3 -4 -3 -0 -1 -4 -2 -2 -2 -2 -2 -2 -2 -1 -4 -5 1 -1 -3 -1 -0 -3 0 2 -0 4 -0 2 -3
-0 -2 -3 -4 -4 -2 3 1 -0 1 -2 1 3 2 4 1 3 -4 -3 -3 5 2 -0 1 -2 -6 -2 -2 -2 -1 0 1 -0 0 1 -1 1 1 0 -4 -4 -3 -4 -1 -1 -0 1 0 2
5 -4 -10 -1 -4 -2 -3 -6 8 4 -2 1 -1 -2 -3 -4 -1 -7 -1 -6 -1 0 -3 2 -2 2 -4 -4 -1 -1 -0 0 -1 -0 -0 -1 -2 -4 1 -0 -0 -0 1 -2 -2 -3 -3 0 -0
5 -1 -4 -5 -2 -2 -2 -6 1 5 2 -4 -2 1 0 2 3 4 -3 -3 -8 -3 2 -6 3 2 0 -3 -1 -1 -0 -0 -1 -1 -1 -3 -2 -2 -4 -1 -1 -1 -1 2 -2 -2 -4 -3 -1
2 -4 -8 5 -1 11 -18 1 -4 -0 1 -3 -6 -5 -2 0 -0 4 3 4 3 -0 -4 -5 -5 -7 -3 5 4 3 5 2 2 3 3 -0 2 3 5 4 0 -1 0 -3 -2 -1 -2 1 1
-0 7 -17 5 -2 -0 -10 -6 -5 6 4 7 -1 0 -2 -6 -0 -2 -1 -2 0 3 -0 -3 -4 -3 -5 -2 -5 -3 -1 -1 -1 -1 -3 -2 1 1 2 -1 -0 2 1 2 0 -1 -1 -4 -1
4 1 -5 -10 -4 10 13 -12 3 0 -2 7 -6 -3 -5 -2 0 -4 -4 -0 -4 2 -1 -4 -1 -2 -1 1 4 2 1 -3 -2 -4 -4 -5 -5 -3 -6 -4 5 7 3 2 -0 -2 -1 3 4
9 -2 6 -1 2 8 -8 2 -9 -2 -2 -2 -3 3 -2 2 3 5 -2 -3 -3 0 0 -1 0 -1 1 -1 -1 -0 2 4 3 8 8 4 -4 -2 -4 -2 -4 -2 -2 -3 2 4 1 -3 3
-3 4 6 5 0 1 -4 -2 -6 -7 -0 -3 -6 -0 -1 -1 1 -2 0 -2 -2 -3 -2 -1 0 -1 -2 -1 -0 0 1 -1 1 2 3 2 3 2 -0 1 4 3 -0 -1 0 2 2 -1 0
1 3 1 3 -1 -13 26 -6 -5 -5 7 -2 -2 -4 -1 -1 3 -2 1 -0 -2 -0 -1 -3 -2 0 3 -2 -2 -1 -2 -1 -1 -2 -1 1 1 4 -3 -9 -3 -4 1 -5 1 3 3 3 -0
1 3 -1 -3 1 5 -3 -2 14 -4 11 6 2 -0 -1 -0 4 1 2 -1 -0 2 2 1 0 1 0 -1 1 1 -1 -1 -2 -1 1 2 2 2 2 1 3 0 -0 4 -2 -2 -1 -2 -2
11 1 8 1 -1 -4 -1 8 4 32 3 -1 0 -3 -4 -2 1 1 2 0 1 -0 3 -1 -0 2 -3 -2 0 -1 -2 -2 -3 -3 -3 -2 -4 -2 0 2 0 1 -5 -1 4 4 2 1 -0
1 -10 -3 -1 5 3 2 3 5 5 7 8 4 1 -1 0 6 1 -2 -2 0 1 1 -2 1 1 -1 1 0 -1 -2 -1 -0 -1 -1 -1 -5 -2 -1 -2 -1 -0 -1 -2 0 2 2 3 -0
-3 5 8 -1 -5 -0 4 2 3 8 0 2 7 4 2 5 2 0 -2 -2 -1 1 -2 1 -1 -3 -0 -1 1 -1 -2 -2 -2 -2 -3 -5 -2 -2 -1 -1 -2 -0 1 2 4 4 2 0 1
2 9 -0 6 1 1 2 2 3 3 -4 18 1 -8 8 3 1 1 -2 -1 -1 1 -2 3 0 -2 0 -0 1 -2 -3 -1 -2 -4 -0 1 0 0 -3 -2 -2 -1 1 1 2 1 -1 -1 -2
2 -9 -1 -2 2 3 4 6 6 1 5 4 -10 -2 2 3 2 0 0 -0 -0 3 -2 3 -3 -1 -2 -1 -2 -3 -2 -3 -3 0 0 -3 -1 -2 -4 -4 -3 -1 -1 -0 1 2 1 -0 -1
Height
5868 5868 5869 5870 5874 5870 5866 5864 5858 5860 5858 5859 5863 5865 5865 5864 5859 5857 5854 5854 5853 5852 5851 5851 5851 5851 5851 5850 5848 5847 5846 5845 5844 5843 5842 5841 5840 5837 5836 5836 5834 5833 5833 5833 5833 5832 5832 5832 5834
5864 5865 5866 5868 5870 5866 5863 5860 5855 5853 5851 5851 5856 5862 5860 5857 5855 5853 5851 5851 5849 5848 5846 5846 5846 5846 5845 5844 5842 5841 5840 5838 5838 5837 5836 5835 5834 5831 5830 5829 5828 5827 5826 5826 5827 5826 5827 5827 5828
5860 5861 5862 5864 5865 5860 5856 5857 5853 5852 5846 5844 5851 5854 5854 5851 5848 5848 5847 5846 5844 5842 5842 5842 5842 5841 5839 5837 5835 5834 5833 5832 5830 5829 5829 5828 5827 5825 5824 5823 5821 5821 5820 5820 5820 5819 5820 5821 5822
5855 5857 5859 5861 5860 5857 5852 5851 5848 5845 5851 5850 5851 5849 5846 5844 5842 5842 5842 5840 5840 5838 5838 5837 5836 5834 5832 5830 5829 5827 5826 5824 5822 5821 5820 5819 5818 5817 5817 5816 5814 5813 5813 5812 5812 5812 5812 5813 5815
5852 5853 5855 5856 5855 5851 5852 5847 5842 5838 5845 5847 5850 5845 5842 5840 5838 5837 5837 5836 5834 5833 5832 5831 5829 5827 5825 5823 5821 5819 5817 5816 5814 5813 5811 5810 5809 5808 5808 5807 5806 5806 5805 5805 5805 5804 5804 5805 5807
5849 5850 5852 5851 5847 5847 5847 5844 5836 5839 5844 5845 5842 5840 5838 5835 5833 5832 5831 5830 5829 5828 5826 5824 5822 5820 5817 5815 5813 5810 5808 5806 5805 5803 5802 5801 5800 5799 5799 5798 5798 5797 5797 5797 5797 5797 5796 5797 5798
5847 5848 5849 5846 5845 5844 5838 5836 5839 5839 5841 5837 5839 5835 5832 5830 5829 5828 5826 5825 5824 5822 5820 5818 5815 5812 5809 5807 5804 5802 5799 5797 5794 5793 5791 5790 5790 5790 5789 5789 5789 5789 5788 5789 5789 5789 5789 5789 5790
5844 5845 5847 5843 5840 5837 5833 5831 5833 5836 5838 5835 5831 5829 5827 5826 5824 5823 5821 5820 5818 5816 5814 5811 5808 5805 5802 5798 5796 5793 5791 5788 5785 5783 5781 5780 5780 5780 5779 5779 5779 5779 5779 5779 5780 5781 5782 5782 5782
5842 5838 5837 5836 5836 5830 5827 5828 5830 5832 5835 5830 5826 5825 5823 5821 5819 5818 5816 5814 5812 5810 5807 5804 5801 5798 5795 5792 5789 5784 5781 5777 5774 5772 5770 5769 5769 5769 5767 5767 5768 5769 5769 5770 5771 5772 5773 5774 5775
5838 5832 5830 5832 5829 5827 5827 5827 5826 5829 5831 5825 5823 5820 5818 5816 5814 5812 5810 5808 5805 5803 5800 5797 5794 5791 5788 5785 5781 5777 5772 5768 5766 5762 5759 5758 5757 5758 5756 5756 5757 5757 5758 5759 5761 5763 5764 5765 5766
5832 5829 5829 5830 5826 5826 5825 5824 5821 5824 5827 5820 5818 5815 5812 5811 5809 5807 5805 5802 5798 5795 5792 5789 5786 5782 5777 5773 5771 5769 5765 5762 5759 5755 5750 5747 5748 5749 5749 5746 5745 5747 5747 5749 5750 5752 5754 5755 5757
5826 5829 5829 5828 5822 5826 5827 5824 5815 5813 5814 5814 5812 5810 5808 5806 5805 5802 5799 5796 5793 5790 5788 5784 5779 5775 5771 5765 5761 5756 5755 5751 5751 5749 5745 5741 5740 5739 5738 5736 5736 5737 5737 5738 5740 5741 5744 5745 5747
5822 5824 5824 5822 5823 5823 5823 5818 5816 5813 5810 5808 5806 5804 5803 5801 5798 5797 5794 5791 5788 5785 5782 5777 5772 5769 5764 5759 5753 5748 5744 5742 5739 5738 5736 5732 5731 5730 5729 5729 5728 5727 5728 5729 5730 5731 5734 5736 5737
5820 5819 5818 5818 5818 5817 5815 5813 5812 5808 5804 5803 5802 5800 5798 5796 5793 5790 5787 5783 5780 5778 5774 5769 5762 5758 5754 5749 5744 5740 5735 5732 5730 5727 5726 5724 5722 5721 5720 5720 5720 5719 5721 5721 5722 5722 5724 5726 5727
5813 5812 5812 5812 5813 5810 5806 5805 5804 5801 5800 5799 5798 5797 5793 5791 5788 5785 5782 5779 5777 5774 5768 5764 5757 5752 5747 5742 5738 5734 5730 5726 5723 5720 5716 5715 5715 5713 5710 5711 5712 5712 5711 5711 5712 5714 5715 5715 5717
5809 5807 5805 5803 5805 5801 5799 5802 5800 5796 5795 5795 5794 5791 5788 5785 5783 5778 5776 5773 5770 5768 5762 5757 5752 5745 5739 5736 5733 5728 5724 5720 5717 5714 5711 5707 5706 5705 5703 5702 5702 5703 5703 5703 5703 5703 5705 5705 5705
5803 5802 5799 5792 5799 5796 5792 5793 5796 5793 5790 5789 5787 5785 5782 5779 5777 5773 5771 5767 5763 5760 5756 5751 5746 5741 5735 5729 5726 5722 5717 5713 5709 5706 5702 5699 5697 5695 5695 5694 5694 5693 5693 5693 5693 5692 5693 5693 5693
5798 5797 5795 5787 5790 5788 5786 5786 5790 5789 5785 5782 5780 5779 5778 5775 5773 5770 5765 5761 5757 5753 5749 5743 5738 5735 5731 5726 5720 5715 5711 5706 5702 5699 5695 5692 5689 5688 5686 5686 5685 5683 5682 5683 5682 5681 5681 5681 5681
5793 5791 5788 5792 5788 5784 5780 5780 5781 5783 5780 5777 5774 5772 5771 5769 5766 5764 5761 5757 5753 5747 5742 5737 5732 5726 5722 5718 5715 5711 5707 5701 5697 5693 5690 5686 5685 5683 5682 5679 5677 5675 5673 5671 5670 5669 5668 5668 5667
5790 5790 5783 5783 5784 5784 5779 5778 5778 5780 5776 5772 5770 5767 5765 5762 5760 5757 5754 5750 5746 5742 5738 5732 5727 5721 5716 5711 5705 5701 5697 5693 5689 5684 5680 5678 5676 5674 5671 5669 5666 5665 5663 5661 5659 5656 5654 5653 5653
5785 5782 5780 5778 5781 5781 5779 5775 5771 5773 5770 5768 5764 5762 5759 5757 5755 5751 5748 5744 5739 5735 5731 5726 5721 5716 5712 5707 5703 5698 5692 5686 5682 5677 5672 5669 5666 5662 5659 5656 5654 5652 5648 5645 5642 5640 5639 5637 5638
5780 5779 5779 5775 5776 5777 5774 5772 5764 5763 5762 5761 5759 5757 5754 5752 5749 5746 5741 5738 5734 5731 5727 5722 5717 5711 5707 5701 5696 5692 5687 5682 5677 5673 5669 5664 5658 5652 5648 5643 5639 5635 5632 5629 5626 5624 5621 5618 5618
5774 5775 5774 5773 5769 5768 5766 5763 5760 5757 5755 5753 5752 5752 5751 5748 5745 5740 5737 5733 5729 5725 5721 5716 5711 5706 5701 5695 5690 5686 5681 5675 5670 5666 5661 5656 5651 5645 5638 5632 5625 5620 5615 5611 5609 5606 5603 5600 5598
5770 5769 5768 5766 5764 5762 5763 5756 5753 5751 5749 5746 5746 5744 5744 5742 5739 5735 5732 5728 5723 5720 5715 5710 5705 5701 5696 5689 5684 5679 5674 5668 5662 5656 5651 5645 5639 5632 5623 5615 5610 5604 5600 5594 5590 5585 5581 5578 5575
5764 5762 5760 5758 5757 5756 5754 5752 5749 5741 5743 5743 5743 5740 5738 5736 5734 5730 5727 5723 5719 5715 5710 5706 5700 5696 5690 5684 5679 5673 5666 5660 5653 5647 5641 5634 5626 5618 5610 5602 5596 5588 5581 5574 5567 5562 5557 5553 5550
5761 5757 5755 5750 5749 5748 5749 5745 5745 5733 5737 5736 5736 5734 5732 5730 5728 5725 5721 5717 5714 5709 5705 5700 5695 5690 5683 5678 5672 5665 5658 5651 5644 5636 5628 5619 5610 5602 5595 5587 5578 5569 5560 5552 5545 5539 5534 5530 5527
5750 5747 5747 5743 5741 5741 5742 5741 5739 5738 5735 5733 5731 5729 5727 5725 5723 5718 5715 5711 5708 5704 5700 5694 5689 5684 5678 5672 5665 5658 5651 5643 5634 5626 5617 5607 5597 5587 5579 5569 5560 5549 5538 5529 5522 5516 5511 5507 5503
5743 5743 5738 5733 5732 5734 5735 5732 5731 5730 5729 5727 5726 5725 5722 5720 5716 5713 5709 5706 5702 5698 5694 5688 5683 5677 5671 5665 5657 5650 5642 5633 5624 5614 5604 5593 5583 5573 5563 5552 5541 5529 5516 5506 5498 5493 5487 5482 5477
5735 5734 5730 5728 5725 5725 5727 5727 5726 5723 5723 5720 5718 5717 5717 5714 5711 5707 5704 5700 5696 5692 5687 5683 5676 5671 5664 5657 5650 5641 5632 5623 5614 5603 5593 5582 5570 5558 5547 5534 5520 5506 5494 5483 5475 5469 5463 5457 5452
5723 5719 5719 5718 5717 5717 5718 5719 5720 5718 5718 5716 5712 5712 5710 5708 5705 5702 5698 5695 5690 5686 5681 5676 5670 5663 5657 5650 5641 5632 5623 5613 5603 5593 5581 5568 5556 5544 5530 5515 5500 5486 5474 5464 5456 5449 5441 5434 5428